Orbital Elements at Epoch 2459200.5 (2020-Dec-17.0) TDB
Reference: JPL 32 (heliocentric ecliptic J2000)
Element | Value | Uncertainty (1-sigma) | Units |
e | .0316786416598997 | 2.4988e-08 | |
a | 2.883837155613599 | 1.4194e-08 | au |
q | 2.792481111755411 | 7.8062e-08 | au |
i | 8.103045222117801 | 4.8956e-07 | deg |
node | 201.1980716005401 | 3.0762e-06 | deg |
peri | 139.7898312149595 | 4.4132e-05 | deg |
M | 327.9234799110072 | 4.4964e-05 | deg |
tp | 2459359.881999960512 (2021-May-25.38199996) | 0.00022357 | TDB |
period | 1788.770098084107 4.90 | 1.3206e-05 3.616e-08 | d yr |
n | .2012556003622736 | 1.4858e-09 | deg/d |
Q | 2.975193199471787 | 1.4644e-08 | au |
|
| | Orbit Determination Parameters
Additional Information
|